Tracking 29892 objects as of 21-Nov-2024
HD Live streaming from Space Station
objects crossing your sky now

STARLINK-31138

Track STARLINK-31138 now!
10-day predictions
STARLINK-31138 is classified as:


NORAD ID: 58806
Int'l Code: 2024-012V
Perigee: 494.8 km
Apogee: 495.5 km
Inclination: 43.0 °
Period: 94.4 minutes
Semi major axis: 6866 km
RCS: Unknown
Launch date: January 15, 2024
Source: United States (US)
Launch site: AIR FORCE EASTERN TEST RANGE (AFETR)
Your satellite tracking list
Your tracking list is empty




NASA's NSSDC Master Catalog

Two Line Element Set (TLE):
1 58806U 24012V   24325.95175206  .00000659  00000-0  35011-4 0  9991
2 58806  42.9947 316.3687 0000525   9.9884 350.0977 15.25912463 48830
Source of the keplerian elements: AFSPC